Tracking 20040 objects as of 19-Nov-2019
Live streaming from Space Station
objects crossing your sky now

NOAA 16 DEB

Track NOAA 16 DEB now!
10-day predictions


NORAD ID: 41307
Int'l Code: 2000-055HK
Perigee: 830.8 km
Apogee: 862.1 km
Inclination: 98.9 °
Period: 101.7 minutes
Semi major axis: 7217 km
RCS: Unknown
Launch date: September 21, 2000
Source: United States (US)
Launch site: AIR FORCE WESTERN TEST RANGE (AFWTR)

Note: This is SATELLITE DEBRIS
aabbcc
Your satellite tracking list
Your tracking list is empty




NASA's NSSDC Master Catalog

Two Line Element Set (TLE):
1 41307U 00055HK  19323.07900549  .00001062  00000-0  56109-3 0  9990
2 41307  98.9228  50.2361 0021649  35.8030 324.4589 14.15887684201014
Source of the keplerian elements: AFSPC